Regional Weather Roundup
Issued by NWS

Home | Current Version | Previous Version | Graphics & Text | Print | Product List | Glossary On
Versions: 1 2 3 4 5 6 7 8 9 10 11 12 13 14 15 16 17 18 19 20 21 22 23 24 25 26 27 28 29 30 31 32 33 34 35 36 37 38 39 40 41 42 43 44 45 46 47 48 49 50
000
ASUS45 KSLC 312110
RWRUT

UTAH REGIONAL WEATHER ROUNDUP
NATIONAL WEATHER SERVICE SALT LAKE CITY UT
300 PM MDT MON AUG 31 2015

UTZ001>011-023>025-312200-

NORTHERN UTAH

CITY           SKY/WX    TMP DP  RH WIND       PRES   REMARKS
BRIGHAM CITY     N/A     83  19   9 W5        30.05F
HILL AFB         N/A     83  43  24 S8        30.07F
LOGAN            N/A     82  25  12 VRB3      30.05F
OGDEN            N/A     83  35  18 N6        30.05F
PROVO AIRPORT  MOSUNNY   84  48  28 SE3       30.03F
SALT LAKE CITY   N/A     85  41  21 NW10      30.02F
VERNAL           N/A     78  47  33 CALM      30.10S
WENDOVER         N/A     82  27  13 SE8       30.05F
HEBER CITY       N/A     82  37  20 SW17      30.09F
WEST JORDAN    SUNNY     82  43  24 NW10      30.05F

$$

UTZ012>022-026-027-312200-

SOUTHERN/CENTRAL UTAH

CITY           SKY/WX    TMP DP  RH WIND       PRES   REMARKS
BLANDING         N/A     82  47  30 S6        30.23F
BRYCE CANYON     N/A     76  40  27 S12G22    30.29F
CEDAR CITY       N/A     85  38  18 SW20G28   30.12F
DELTA            N/A     86  35  16 SW10      30.06F
HANKSVILLE       N/A     77  52  41 S8G16     30.08R
MILFORD          N/A     90  41  18 SW17G28   30.05F
MOAB/CYNLANDS    N/A     87  53  31 MISG      30.05F
PRICE            N/A     80  52  37 CALM      30.14F
ST GEORGE        N/A     97  48  19 NW8       29.93F HX  93
KANAB            N/A     84  55  37 S6        30.15F

$$

REGIONAL REPORTS     COLORADO/ARIZONA

CITY           SKY/WX    TMP DP  RH WIND       PRES   REMARKS
CRAIG, CO      CLOUDY    71  53  52 NE5       30.16F
GRAND JUNCTION   N/A     79  52  38 VRB3      30.10F
RIFLE            N/A     74  53  48 E3        30.18F
MONTROSE         N/A     79  49  34 VRB7      30.18F
CORTEZ           N/A     83  47  28 S7        30.17F
PAGE, AZ         N/A     81  57  43 N5        30.07F
GRAND CANYON     N/A     69  54  58 SE6       30.26
KINGMAN          N/A     96  46  18 SW22G29   29.98F HX  92
FLAGSTAFF      PTSUNNY   69  54  58 SW9       30.29S

$$

REGIONAL REPORTS    NEVADA/IDAHO/WYOMING

CITY           SKY/WX    TMP DP  RH WIND       PRES   REMARKS
LAS VEGAS, NV    N/A    101  44  14 N7        29.80F HX  97
ELY              N/A     84  27  12 S10G21    30.13F
ELKO             N/A     85  25  11 CALM      30.05F
POCATELLO, ID    N/A     78  34  20 W10       30.08F
BURLEY           N/A     77  41  27 NE6       30.04F
EVANSTON, WY     N/A     78  34  20 W15G28    30.19F
ROCK SPRINGS     N/A     76  39  26 SW16G24   30.18F
KEMMERER         N/A     77  25  14 W22G30    30.20F

$$


USA.gov is the U.S. government's official web portal to all federal, state and local government web resources and services.